GFSSE_250_rhum_204.txt.gz
RH
70 49 77 100 100 68 72 50 80 62 44 29 23 21 14 14 14 10 11 11 17 22 15 9 8 7 10 10 9 8 7 7 7 8 12 17 29 38 40 45 51 49 44
65 73 61 91 100 72 67 67 88 84 53 34 23 23 24 16 16 12 11 10 12 9 9 8 9 12 14 13 11 9 8 7 7 7 8 9 10 10 12 12 12 13 11
58 58 74 84 94 76 79 58 91 88 49 40 28 28 26 26 20 18 10 9 9 11 9 11 12 16 17 16 14 8 7 6 8 8 9 10 10 10 10 10 9 10 11
73 94 89 81 67 78 99 92 75 85 65 51 35 34 33 29 34 30 15 9 10 11 12 12 13 16 15 15 20 13 8 8 10 11 13 14 13 12 12 13 12 12 11
52 50 54 48 47 56 65 70 88 79 73 61 46 40 40 34 32 38 32 12 10 9 10 12 14 15 16 15 19 15 11 9 10 12 14 14 14 13 12 13 12 11 11
79 70 56 55 82 60 56 100 100 92 85 65 57 42 42 53 38 34 41 32 17 11 12 15 16 13 16 16 18 20 12 10 10 11 12 13 13 12 12 12 12 12 12
100 92 90 68 86 100 84 92 98 93 100 82 62 54 51 56 54 35 37 46 46 33 13 14 13 14 15 18 18 22 17 11 12 11 12 12 12 12 12 13 15 16 16
100 100 100 97 69 94 100 83 92 86 94 100 99 90 71 55 60 45 35 44 54 58 44 31 19 20 18 19 19 20 19 14 13 14 13 14 13 13 14 13 14 16 16
60 100 100 95 77 68 89 100 94 91 80 82 96 93 87 64 70 52 39 40 49 66 73 48 38 24 21 21 22 22 19 19 18 15 14 12 15 13 14 14 14 16 16
100 100 100 94 78 76 64 84 94 92 84 99 100 75 78 78 98 73 52 46 43 65 77 85 70 54 26 24 22 23 26 24 23 22 17 15 14 14 14 15 18 17 18
100 100 100 87 73 74 66 55 69 90 100 100 96 86 83 89 99 90 70 55 62 52 94 100 92 73 60 38 33 26 29 30 32 29 29 27 22 19 17 18 21 22 25
100 100 100 94 81 66 71 63 44 68 98 99 100 96 93 100 89 83 88 90 80 72 58 72 100 100 97 64 64 48 36 31 34 38 35 35 35 35 29 28 27 29 32
100 100 100 97 83 91 79 52 40 37 53 77 78 90 86 100 100 86 81 100 95 75 72 72 72 86 100 100 99 90 41 49 47 47 45 41 41 41 38 33 34 31 42
100 98 84 89 79 83 76 62 44 31 40 55 55 100 100 100 100 100 100 100 96 97 66 77 86 78 92 100 100 100 91 56 50 54 50 52 48 46 43 43 42 39 60
85 58 65 67 60 65 69 71 53 29 29 29 58 100 97 100 100 100 100 98 100 100 78 71 94 96 88 100 100 100 100 93 72 63 73 65 56 54 55 50 52 56 78
47 54 55 50 51 56 77 73 54 32 27 26 42 100 100 100 100 100 100 100 100 99 92 90 100 100 97 100 100 100 100 100 100 99 93 90 81 68 66 63 62 67 90
39 45 42 40 56 70 80 72 56 41 27 28 28 42 87 100 100 95 84 97 100 100 100 100 100 100 100 100 100 100 100 100 100 100 100 100 100 100 90 82 92 89 100
31 25 33 35 33 67 70 63 58 41 30 35 35 36 40 45 47 62 81 100 100 100 100 100 100 91 94 100 100 100 100 100 100 100 100 100 100 100 100 100 100 100 100
41 32 21 20 31 35 68 67 64 60 74 82 87 95 92 80 78 100 99 99 100 100 100 100 100 98 97 100 100 100 100 100 100 100 100 100 100 100 100 100 100 100 100
40 35 30 33 42 39 42 58 66 74 78 99 100 93 90 99 84 81 99 98 91 91 99 99 100 100 100 100 87 76 99 100 99 100 100 100 100 100 100 100 100 100 100
53 43 35 28 47 40 34 41 43 55 63 71 89 92 100 69 62 56 48 81 71 60 71 84 87 99 99 100 86 85 85 90 100 100 100 100 100 100 100 100 100 100 100
44 51 79 47 30 34 42 38 44 39 51 79 95 100 100 86 57 39 28 50 80 80 85 90 79 95 100 100 82 83 87 82 86 100 100 100 100 100 100 100 100 100 100
100 79 66 76 48 32 31 35 40 51 62 76 100 100 99 100 99 54 31 30 40 65 93 100 100 100 98 91 91 90 93 80 97 100 100 100 100 92 79 91 100 100 96
93 96 88 75 68 40 48 86 79 65 79 69 90 100 92 89 100 76 39 30 27 61 100 95 98 100 94 94 99 98 86 76 71 92 99 100 100 100 100 100 93 81 95
100 100 77 90 100 100 83 68 90 85 86 99 100 100 100 100 100 94 62 45 35 56 89 95 100 100 99 100 100 100 100 92 100 100 100 100 94 91 83 79 72 66 59
70 69 70 58 74 88 96 92 100 100 78 88 97 100 100 100 100 100 79 70 52 48 45 59 86 87 78 85 98 94 95 92 97 95 94 96 86 73 63 60 64 57 47

GFSSE_250_rhum_207.txt.gz
RH
56 64 70 60 44 62 43 35 54 50 43 70 59 33 31 23 23 20 13 13 10 11 15 14 10 9 10 15 14 13 12 10 8 8 7 7 8 10 14 18 27 42 49
44 42 39 47 66 62 57 46 53 51 52 79 59 45 41 28 25 25 20 16 10 9 9 10 9 10 14 16 15 14 15 11 8 6 6 7 8 8 9 9 10 10 13
60 49 43 47 76 87 93 79 55 69 71 65 60 51 48 32 30 28 28 26 12 9 11 10 11 12 13 16 15 12 16 15 9 8 8 9 10 12 12 11 10 10 11
92 69 70 52 47 46 51 53 48 65 65 61 66 57 52 38 33 35 32 32 29 10 10 11 12 13 14 14 16 13 13 20 12 8 9 11 14 14 14 14 14 14 13
94 81 74 77 61 66 58 58 75 72 76 79 70 68 57 45 38 44 44 35 37 24 10 9 11 14 14 16 14 14 16 19 12 9 10 11 13 14 14 13 13 12 12
59 99 85 100 100 96 70 69 70 88 88 98 83 75 71 55 53 51 49 45 33 40 42 17 11 15 15 14 15 17 17 22 13 11 10 12 12 14 13 13 13 12 13
98 100 82 97 91 100 97 90 74 88 100 87 76 86 100 99 82 60 55 50 43 35 41 50 31 15 16 17 18 18 18 21 18 14 12 12 13 13 13 14 13 14 15
100 60 58 75 87 100 100 97 92 77 94 96 91 73 62 77 96 71 54 60 52 38 36 48 66 42 34 24 21 20 19 21 20 19 15 13 13 13 14 13 13 15 15
50 79 62 81 96 100 100 100 100 90 77 93 99 92 68 81 82 59 70 74 66 50 42 40 67 79 53 45 28 24 22 21 20 19 22 17 15 13 13 13 13 15 16
95 98 86 79 66 100 71 86 88 86 76 64 81 94 72 77 84 69 74 99 94 67 57 49 61 85 76 76 67 47 34 27 23 21 22 23 20 17 17 16 16 16 17
83 81 100 99 100 100 70 66 83 78 83 65 71 86 97 87 77 59 90 78 89 80 63 58 65 81 97 100 99 73 58 38 43 26 25 31 29 26 26 21 20 20 21
100 100 100 100 97 82 70 71 76 80 91 83 72 72 77 82 73 62 88 91 80 74 74 88 77 71 73 81 89 100 100 96 85 51 30 30 36 43 36 34 35 30 31
98 100 100 100 87 82 83 83 83 78 83 85 60 46 59 71 70 66 72 100 100 85 73 77 89 84 75 81 78 80 93 100 100 97 62 34 44 44 52 51 43 42 39
46 48 75 100 100 100 100 98 85 67 66 76 70 54 40 67 62 42 64 94 100 87 95 100 96 93 78 65 74 81 82 95 100 100 99 83 46 40 56 60 57 54 51
42 39 41 44 54 66 66 69 69 72 72 71 74 54 37 40 60 54 89 87 97 89 80 96 100 100 100 86 75 85 84 89 94 99 100 100 96 87 78 73 76 74 67
31 38 36 33 28 33 48 51 56 75 78 83 74 59 39 31 41 55 89 100 98 100 98 100 100 100 100 100 96 88 88 87 93 99 100 100 100 100 100 96 89 90 91
76 68 51 48 44 30 27 47 64 60 83 89 80 62 46 31 35 48 84 100 100 100 100 100 96 100 96 100 100 95 97 97 100 99 95 96 100 100 100 100 97 94 97
100 100 80 40 45 42 32 25 24 58 75 84 78 65 57 41 43 71 62 48 49 56 77 99 100 100 100 100 99 97 100 98 86 80 83 88 95 100 100 100 100 100 98
33 40 62 73 43 38 34 30 35 28 56 74 82 76 71 89 81 100 100 100 100 100 99 87 88 85 91 97 100 100 100 91 88 92 87 87 89 89 93 84 85 88 87
77 60 48 72 66 46 37 38 24 23 27 62 74 72 82 100 100 69 100 100 100 100 93 71 64 86 87 77 71 88 99 93 97 100 93 82 88 83 83 91 92 92 87
75 100 100 79 84 36 28 27 22 19 21 31 58 70 66 96 100 100 97 78 100 94 79 57 99 96 84 82 97 100 100 100 100 100 82 75 75 92 99 100 100 92 95
34 34 31 90 100 97 67 34 29 29 44 55 34 50 76 88 100 100 100 86 78 80 70 63 87 68 68 85 100 97 98 100 97 79 94 86 83 78 86 91 81 79 92
43 33 28 47 95 85 57 72 56 65 80 100 85 44 54 88 100 100 100 100 98 75 67 63 73 69 58 96 100 81 92 99 97 100 98 96 85 79 76 90 100 97 84
49 62 75 81 92 99 96 72 76 96 67 99 100 100 75 72 100 100 100 100 100 100 74 61 63 40 36 78 99 91 79 91 100 100 94 85 85 85 99 99 96 88 85
40 50 67 85 99 100 100 100 92 89 74 87 100 100 100 100 100 100 100 100 100 100 100 72 55 59 40 64 99 90 94 100 100 100 98 89 83 81 81 82 84 85 88
51 70 63 60 58 70 81 98 96 68 66 78 77 94 98 100 99 100 100 100 100 100 100 100 100 77 68 52 82 96 96 100 100 99 97 100 98 98 89 85 77 68 53

GFSSE_250_rhum_210.txt.gz
RH
40 58 60 47 46 64 60 52 50 40 44 43 46 41 43 35 31 26 23 22 16 11 10 12 12 10 9 10 16 16 15 14 15 12 9 7 7 7 7 8 10 13 18
48 89 100 85 53 47 51 57 53 55 79 64 47 44 49 40 36 32 26 23 24 17 10 9 10 9 9 13 16 16 13 12 15 15 11 8 7 7 7 8 8 9 10
80 89 100 95 67 65 55 51 50 47 52 43 54 54 48 43 40 40 32 27 26 28 11 10 11 10 11 12 14 15 16 12 14 18 11 7 7 8 10 11 11 11 12
100 72 100 84 60 69 78 70 56 49 55 48 44 45 58 53 42 46 38 37 32 31 30 11 11 11 11 13 14 15 14 12 15 20 12 8 8 10 13 15 16 16 15
100 100 89 56 96 96 100 95 76 71 61 56 53 64 81 69 51 52 49 45 39 40 38 32 12 10 10 11 14 14 14 15 16 22 15 11 10 12 13 13 14 13 13
51 100 100 100 100 100 100 82 91 100 71 57 63 60 71 64 81 97 64 60 43 42 47 37 44 37 17 12 14 15 15 17 18 22 20 22 11 11 12 13 13 14 13
58 94 98 100 99 58 53 64 96 100 79 46 56 64 69 71 59 62 60 58 51 44 53 39 38 46 51 31 23 16 17 19 19 22 19 23 14 12 12 14 14 13 13
69 50 52 69 90 56 48 55 52 86 42 38 51 66 62 66 68 60 54 55 47 58 66 51 45 38 47 54 47 37 24 22 22 19 20 17 18 16 14 14 15 15 14
100 98 81 58 55 83 66 46 51 47 57 48 44 60 66 54 61 58 59 56 49 48 92 66 53 49 40 53 71 60 43 30 26 24 22 17 26 24 16 14 14 15 15
100 90 95 84 75 100 100 94 94 88 96 90 62 64 66 66 54 51 59 60 49 53 74 100 81 66 51 45 68 70 71 63 54 43 39 26 21 30 29 20 15 15 16
67 67 84 91 100 100 96 98 100 100 66 84 90 86 74 82 79 60 53 51 51 57 65 70 89 80 79 69 52 55 95 100 94 66 51 53 36 24 33 32 25 22 21
47 46 64 78 54 47 76 100 100 88 86 87 96 91 81 85 95 69 52 48 52 56 68 79 88 86 82 100 84 62 66 69 76 100 100 97 81 46 31 32 44 48 33
74 57 46 41 55 75 84 100 96 95 100 100 93 72 63 69 88 63 50 42 46 45 70 87 99 88 88 76 99 92 60 56 69 72 78 99 100 100 67 34 35 47 59
42 44 54 56 47 39 47 78 96 98 83 73 76 74 72 74 85 72 49 39 36 44 54 81 82 93 87 97 100 100 93 77 60 53 66 74 95 100 92 84 56 37 39
58 50 39 55 69 66 43 38 36 44 53 54 62 85 84 75 85 73 54 38 42 34 47 73 79 78 79 100 100 100 99 99 87 76 63 67 76 79 88 100 100 94 87
46 49 69 55 50 82 69 48 47 40 31 36 37 41 62 74 87 78 60 46 35 36 50 73 84 79 78 83 84 89 96 98 100 99 83 82 82 86 77 72 82 91 95
40 46 42 52 54 72 86 72 48 47 36 29 38 71 70 61 65 82 65 52 41 39 55 76 100 100 98 97 99 91 88 98 94 100 94 88 85 81 70 63 68 69 73
50 52 76 67 56 56 43 34 36 27 29 42 58 78 100 100 81 77 81 80 88 96 100 100 100 91 80 70 66 70 63 69 72 86 94 96 96 85 78 76 72 73 65
36 41 42 49 56 58 46 66 89 69 38 29 38 38 70 94 100 93 85 95 100 100 99 100 100 100 100 95 82 68 73 88 85 64 83 84 80 75 74 82 80 74 80
29 34 38 35 31 37 54 52 61 56 84 63 43 43 48 64 99 90 64 90 100 80 80 91 99 100 100 100 99 86 91 76 81 94 95 91 95 90 81 76 73 80 76
33 40 46 37 40 38 44 34 31 38 57 68 67 70 63 38 60 73 60 88 100 100 100 60 76 100 100 100 100 89 63 86 73 98 93 80 91 86 86 71 82 98 81
29 42 41 49 46 49 70 69 59 58 49 91 83 78 99 80 84 100 100 99 100 100 100 100 75 89 92 98 99 97 96 98 92 75 85 70 70 79 86 97 94 85 91
36 34 41 54 54 62 70 100 100 78 97 100 100 98 99 92 86 100 100 100 86 100 100 100 100 64 60 60 87 81 94 100 100 57 82 86 82 92 90 92 100 93 83
49 46 45 48 68 65 72 78 69 93 85 100 100 96 82 100 88 90 100 94 100 78 100 100 100 99 81 82 85 89 82 94 100 58 60 58 70 84 84 83 91 82 73
52 53 53 72 77 62 60 61 73 84 82 98 100 76 89 100 100 96 92 100 100 98 100 100 100 100 100 92 77 70 90 99 100 99 71 63 78 82 78 82 86 79 84
62 68 72 95 100 94 80 60 49 57 69 65 63 70 65 71 87 100 86 88 80 99 100 100 100 100 100 100 78 75 85 85 95 100 100 85 88 94 76 84 88 80 70

GFSSE_250_rhum_216.txt.gz
RH
14 18 52 91 72 49 82 71 46 54 52 50 45 52 67 66 72 65 54 52 44 31 28 24 18 14 10 10 17 16 14 15 14 15 15 15 14 14 12 9 8 8 8
12 19 29 99 93 53 90 100 56 51 62 54 46 45 44 44 43 50 73 65 48 39 32 29 21 19 9 9 9 12 15 16 14 13 12 13 14 14 12 9 8 8 7
18 25 30 43 100 88 61 100 64 50 44 75 76 50 52 52 39 39 46 53 54 49 40 35 29 25 11 11 10 12 16 17 16 15 14 14 16 17 11 8 7 7 8
19 27 40 43 100 100 77 83 80 63 94 100 99 81 86 59 48 43 51 56 52 50 46 41 35 27 28 13 11 11 14 14 12 12 13 13 15 18 14 9 9 10 12
27 31 41 99 100 100 100 100 93 100 99 90 93 78 67 53 44 40 46 63 59 59 55 54 43 34 28 32 20 11 11 12 13 12 13 14 15 20 21 13 10 11 12
28 37 50 72 100 100 100 100 90 99 98 69 57 43 45 38 41 64 61 60 64 68 61 54 55 51 40 31 32 35 26 12 11 12 14 15 18 24 24 14 11 12 12
25 29 38 45 76 100 100 98 90 54 100 89 73 51 44 40 39 73 97 71 66 68 77 70 53 51 51 42 34 39 39 39 32 25 16 16 19 23 23 20 14 12 13
26 32 40 47 69 50 70 100 100 100 91 81 62 52 52 53 90 86 84 74 61 67 62 65 68 57 54 60 48 45 43 44 48 44 32 27 23 22 21 21 22 17 14
29 42 49 78 100 100 100 100 100 93 78 69 57 63 94 100 76 75 67 86 83 73 64 63 77 79 67 61 71 53 57 54 60 60 50 36 26 27 25 22 24 28 18
35 39 44 52 56 77 94 89 82 83 100 100 100 96 83 79 99 99 71 94 90 72 74 57 55 69 66 68 80 84 75 66 56 64 68 62 57 50 41 33 26 24 28
42 41 44 41 38 34 37 38 40 46 49 58 53 56 100 80 74 70 73 85 67 63 59 74 58 47 55 74 90 86 88 77 72 84 76 62 70 92 83 70 57 51 30
38 35 36 37 40 43 40 42 44 47 37 34 31 51 89 100 63 53 49 48 54 58 66 70 68 50 50 70 80 95 92 88 88 99 97 90 78 62 53 52 66 98 91
41 38 35 33 30 32 33 41 40 50 52 50 34 37 40 38 35 38 38 39 47 56 60 70 73 68 46 46 52 77 100 98 83 84 90 100 92 84 74 74 70 54 58
36 37 35 34 32 31 28 29 45 70 74 50 50 42 40 37 33 31 29 30 38 38 49 60 76 72 51 43 41 47 93 100 100 98 98 100 100 100 100 93 69 70 71
50 60 74 56 45 38 35 30 26 26 35 73 95 61 36 41 35 32 28 31 48 42 49 60 89 81 62 45 40 43 52 83 99 100 95 84 78 89 95 91 86 87 88
64 64 54 45 40 34 33 34 33 32 33 36 45 77 95 74 43 37 34 31 41 45 42 56 80 79 71 65 47 35 35 47 82 85 78 70 78 90 89 88 89 86 88
58 50 45 44 42 39 31 33 51 67 86 80 86 69 90 82 69 64 70 43 30 40 45 55 90 86 75 76 61 46 46 51 73 77 67 56 51 62 70 73 74 71 83
74 67 70 63 62 40 29 29 33 36 64 96 90 75 100 100 100 100 66 49 71 70 54 66 85 74 81 85 82 85 94 81 74 73 80 92 80 81 88 78 68 75 90
98 78 63 57 47 49 35 29 29 35 39 48 70 67 59 100 100 100 100 90 81 86 87 99 96 71 49 82 100 96 100 100 100 83 63 62 69 72 64 59 78 72 58
85 96 94 86 72 57 49 35 31 35 38 44 36 48 66 71 100 100 100 100 100 100 100 100 99 69 61 100 94 100 78 49 65 68 83 76 55 57 67 66 69 81 88
67 69 56 58 66 61 54 40 36 39 42 52 52 45 47 61 74 98 100 100 83 97 100 100 100 87 96 100 100 100 100 90 63 49 40 46 36 50 71 67 54 70 76
66 52 32 31 34 32 36 42 51 55 52 51 48 52 54 58 50 68 100 100 100 100 100 100 100 100 100 100 88 90 100 100 72 49 32 37 35 30 39 38 37 41 60
32 32 41 44 55 53 52 55 67 68 61 56 59 50 45 53 58 54 76 88 100 100 100 100 100 100 100 95 75 72 79 93 68 51 32 31 37 39 31 28 32 31 41
34 50 51 57 62 64 65 65 71 62 51 64 66 64 65 54 52 51 62 76 80 100 100 100 100 100 100 100 100 82 63 49 60 52 56 47 57 67 60 53 60 43 35
44 50 80 74 81 92 83 76 76 72 54 54 70 73 70 66 57 52 48 72 65 68 84 87 88 91 94 85 99 100 100 69 66 74 98 98 98 80 76 84 91 96 55
98 81 97 73 94 97 96 89 79 84 89 89 88 89 84 77 74 52 57 47 84 80 92 74 100 100 99 100 100 99 99 82 100 97 100 95 100 100 97 85 100 100 98

GFSSE_250_rhum_222.txt.gz
RH
100 94 19 14 12 12 12 14 17 68 67 63 74 68 48 40 34 35 37 40 47 43 39 41 53 51 36 30 29 22 20 13 11 12 12 12 13 15 14 13 13 13 12
100 54 19 15 12 13 16 17 23 42 94 99 100 75 36 35 46 42 43 42 39 41 31 33 40 44 45 34 33 30 21 10 10 14 15 16 15 13 13 13 13 13 12
40 24 20 15 14 16 21 21 27 79 93 100 100 54 44 82 89 61 73 64 52 43 39 34 36 48 54 45 39 33 26 12 10 16 15 15 14 14 14 13 13 13 13
32 22 18 16 17 24 32 30 34 95 100 100 92 64 97 100 99 95 73 44 36 36 31 30 30 42 47 51 46 44 32 20 12 12 17 17 16 15 13 13 11 12 13
31 20 21 17 16 25 40 41 65 100 100 100 100 100 100 100 72 57 59 48 42 40 35 34 34 35 46 55 53 50 39 33 25 12 12 15 15 13 12 12 13 15 18
30 23 21 23 18 24 41 46 66 99 100 100 100 99 99 100 76 67 71 55 53 50 46 61 44 39 45 52 56 49 49 49 37 32 21 20 13 12 12 14 16 18 23
28 24 25 26 26 24 30 41 74 93 88 97 98 85 94 100 100 100 89 67 60 59 77 61 50 50 45 47 52 56 45 50 49 40 34 38 36 32 22 24 17 19 20
40 29 24 28 29 33 32 46 68 94 80 45 46 82 96 100 100 87 70 75 100 100 99 97 100 60 56 51 51 50 58 46 46 54 43 43 44 35 39 30 17 20 21
36 32 23 33 36 39 42 36 42 49 49 66 80 82 78 81 60 86 100 88 100 100 100 76 75 67 63 50 53 49 57 62 48 65 57 49 53 56 47 39 27 22 22
26 41 46 47 51 50 50 49 45 41 40 38 40 41 50 52 57 73 100 100 93 81 100 100 89 67 46 49 51 57 61 68 73 65 66 69 56 57 67 72 66 40 28
61 52 61 56 48 45 41 34 36 45 46 45 41 35 35 40 46 47 40 48 65 80 100 56 60 47 59 57 54 62 60 53 58 67 50 91 78 64 60 90 96 98 97
43 83 78 52 34 35 38 34 31 26 26 28 29 29 27 35 50 65 49 38 66 93 81 58 42 30 44 60 59 64 74 72 51 66 42 82 99 94 75 78 87 85 76
100 60 54 43 40 38 50 45 40 36 33 31 28 26 22 24 24 30 60 52 45 56 72 42 34 30 27 36 52 50 62 66 69 82 53 70 81 91 95 100 100 100 82
57 58 51 57 73 58 57 48 44 42 42 51 43 37 36 32 28 28 57 82 57 46 48 40 36 47 41 44 48 51 50 56 71 88 67 65 75 91 86 87 84 79 100
43 50 64 58 61 62 53 69 63 56 66 79 66 59 53 37 41 44 42 44 86 83 68 61 51 64 75 46 43 47 52 47 71 72 60 43 59 89 100 89 86 79 92
44 55 60 52 77 73 94 98 80 69 55 56 48 48 46 43 36 34 37 56 53 55 100 95 76 83 100 90 78 44 53 66 58 70 81 52 48 50 52 88 100 98 85
34 47 83 95 100 100 94 96 91 61 52 57 56 42 34 29 34 39 32 36 61 69 57 96 100 100 100 80 100 99 80 87 62 47 89 80 62 50 43 43 57 77 85
53 47 61 95 100 100 100 99 66 62 56 48 39 38 39 35 28 28 32 50 63 61 53 81 67 98 100 100 100 100 100 100 82 72 68 100 64 52 54 54 57 60 58
77 93 92 96 97 95 76 69 70 56 38 35 44 50 48 43 37 31 40 76 75 74 82 67 89 84 95 100 100 91 100 100 100 88 64 89 100 58 59 79 85 89 72
93 97 100 99 99 78 67 60 59 50 52 52 57 74 69 58 60 56 42 38 46 54 66 77 63 92 99 100 90 72 88 100 100 100 99 61 100 100 92 95 100 96 79
100 100 100 97 76 79 76 74 73 68 70 68 70 66 66 62 66 51 74 42 44 44 39 46 59 68 91 100 100 89 79 94 100 100 100 95 74 100 100 87 80 68 52
90 83 76 87 56 38 40 48 54 59 62 56 58 63 64 61 52 48 46 60 60 60 62 53 57 49 73 90 96 100 72 76 100 100 100 100 96 92 66 66 76 51 49
95 85 52 34 35 47 39 36 38 45 54 53 53 45 82 89 56 56 75 74 75 82 89 73 53 46 55 82 83 94 81 66 74 100 100 100 100 98 100 93 94 89 50
37 35 35 38 46 47 36 39 75 71 65 56 55 63 80 97 100 100 91 99 100 100 100 100 65 51 39 46 82 77 100 88 60 56 91 100 100 100 97 100 100 100 77
37 35 40 40 39 32 43 66 71 85 93 88 76 69 72 73 94 100 100 77 89 75 76 60 76 99 46 40 36 65 78 100 86 65 79 100 84 95 100 82 100 100 96
47 42 47 43 32 40 61 95 98 100 100 91 100 100 99 90 87 93 100 100 100 100 100 66 87 89 61 43 37 28 54 80 100 90 54 89 82 90 100 100 100 100 100

GFSSE_250_rhum_225.txt.gz
RH
79 84 92 97 26 19 16 13 14 18 19 18 43 63 78 94 65 43 39 40 39 38 34 30 30 27 25 25 25 26 26 22 19 18 13 12 11 11 10 10 11 12 12
95 100 100 59 20 15 11 12 18 28 29 40 48 100 90 99 46 39 70 66 46 51 47 42 37 32 29 23 24 29 32 29 25 15 11 11 14 15 15 14 14 13 13
100 100 87 42 16 15 12 14 20 34 34 65 100 93 100 93 66 100 100 76 72 54 40 33 31 29 28 26 25 33 37 37 29 20 10 13 15 15 14 14 14 13 12
98 89 67 24 20 22 15 15 22 32 57 100 100 100 100 100 100 100 100 100 78 61 56 44 45 37 31 29 27 32 38 45 40 29 15 13 16 16 16 15 14 13 12
83 67 37 25 23 24 17 20 26 35 82 100 100 100 87 100 100 100 89 68 54 51 55 50 48 47 41 30 30 36 39 47 46 34 32 17 13 16 17 16 14 12 12
51 40 29 25 21 23 23 34 41 33 48 100 100 100 100 100 95 100 100 86 90 85 72 66 64 84 64 53 43 39 48 52 49 47 46 37 28 13 15 13 13 13 15
49 42 37 28 20 22 26 33 34 65 86 82 82 92 85 77 78 84 79 98 98 84 75 100 100 100 95 86 57 49 49 53 59 48 44 48 39 35 29 26 22 22 25
56 32 34 39 35 31 25 30 27 33 33 43 65 94 99 100 98 97 100 97 66 56 85 100 100 100 90 65 54 51 54 57 69 55 60 49 52 43 41 36 30 30 25
66 58 41 37 51 57 42 32 30 30 34 37 40 39 41 40 40 42 41 52 62 100 100 90 99 100 100 78 41 46 45 51 68 69 75 59 69 54 47 46 45 37 25
56 80 54 50 64 61 41 31 32 34 36 29 30 36 35 33 34 32 38 48 43 36 79 83 58 100 100 52 41 43 46 56 69 79 70 88 73 78 65 55 60 62 54
100 67 73 95 75 46 38 41 45 38 36 35 35 30 26 27 27 24 25 37 48 48 41 78 73 70 48 55 49 40 56 56 68 84 51 83 66 70 90 82 71 71 86
100 100 100 72 49 48 47 60 49 35 43 36 33 34 37 38 31 29 25 24 28 52 53 43 62 100 94 84 44 33 42 44 72 85 62 60 64 66 95 100 95 79 91
40 72 62 53 54 64 69 73 54 42 49 46 47 56 75 70 62 56 48 29 32 29 54 61 50 56 62 44 41 41 45 41 48 64 58 70 65 47 80 100 100 100 100
51 64 51 65 58 55 72 52 57 59 65 65 70 69 53 59 65 53 50 41 36 31 30 56 77 51 50 50 40 40 47 39 56 63 43 56 87 83 63 73 99 100 100
26 61 48 53 79 79 78 99 91 96 95 94 94 76 57 45 45 40 37 39 39 38 34 34 36 78 95 73 64 55 59 81 42 46 54 46 80 86 65 61 60 84 92
26 32 59 56 41 58 87 100 100 100 100 100 93 60 50 41 36 34 32 33 36 36 37 34 33 37 44 89 87 81 62 66 88 74 88 72 48 88 78 59 51 74 85
36 26 42 54 80 58 84 91 100 100 99 86 56 61 57 63 56 47 49 43 39 37 36 52 49 43 59 56 78 68 96 75 74 100 100 100 88 69 92 80 63 48 46
78 47 40 61 97 60 65 82 75 55 63 69 80 83 66 80 73 69 79 66 52 53 53 77 96 99 80 61 61 64 86 100 92 76 100 100 100 88 73 100 91 64 49
100 93 70 65 53 96 100 98 89 69 58 50 58 71 73 74 76 88 86 96 76 85 57 55 64 67 63 70 84 79 65 78 85 76 98 100 100 100 93 81 100 96 57
100 96 90 82 87 96 97 90 45 47 62 56 44 44 44 46 54 57 62 65 63 70 84 82 76 70 85 98 94 87 92 97 83 95 100 100 99 100 100 98 70 100 91
100 100 100 97 92 66 65 41 36 46 46 45 47 44 38 47 60 70 75 38 40 51 56 64 62 66 65 74 88 95 84 84 100 96 100 92 100 87 100 100 92 96 98
100 100 81 70 54 47 41 39 49 51 51 48 51 46 72 76 79 83 98 97 60 47 50 50 30 43 50 64 80 70 72 84 73 99 100 86 78 96 96 100 100 100 75
100 98 87 61 60 70 56 51 46 44 46 53 53 39 58 71 77 86 91 80 100 85 82 84 80 55 50 60 42 42 51 52 64 73 100 100 78 74 94 97 100 100 100
100 100 87 98 96 69 54 55 64 61 52 53 59 55 74 93 95 86 98 100 99 90 84 90 87 93 83 76 87 90 57 42 29 49 78 100 100 88 81 74 88 100 100
100 100 100 98 83 78 83 66 49 40 41 50 61 71 89 100 100 100 97 100 85 59 72 100 100 91 99 92 100 95 78 57 30 36 33 95 100 100 100 77 55 90 100
100 100 99 97 99 84 65 56 48 47 45 58 68 87 100 99 100 100 97 100 100 100 100 100 100 100 100 100 100 100 81 84 49 36 20 30 93 100 99 99 91 63 91

GFSSE_250_rhum_228.txt.gz
RH
68 100 81 72 89 86 27 16 14 12 12 13 16 19 21 59 58 100 84 45 49 61 44 47 44 42 38 31 28 25 22 22 23 21 19 18 16 13 11 10 10 10 9
65 78 74 76 81 39 20 16 12 13 17 17 22 46 37 87 80 100 65 62 88 74 69 50 44 38 33 30 26 23 23 22 28 27 26 22 12 12 11 12 13 13 13
100 71 81 78 47 26 24 21 14 17 26 26 43 100 93 96 100 100 100 92 100 82 74 64 46 38 37 35 30 26 24 23 29 32 35 27 13 12 13 15 14 14 14
86 77 71 57 32 28 24 17 18 18 32 45 81 100 96 94 92 100 86 100 100 100 83 63 56 46 50 41 35 32 26 28 29 40 43 36 23 13 16 16 16 15 15
100 83 57 39 31 26 21 21 22 30 38 73 100 92 100 100 93 58 96 100 100 100 80 88 71 57 61 64 61 54 52 36 32 49 54 57 36 26 13 16 16 17 16
84 68 56 48 35 34 24 24 22 28 59 75 73 99 100 99 100 100 97 100 92 94 100 100 100 77 88 100 94 75 55 50 35 42 58 56 52 50 35 20 14 15 14
71 78 42 41 44 44 48 44 29 23 25 30 62 66 75 79 74 94 100 100 100 88 84 84 73 63 100 100 99 78 76 48 44 44 51 61 60 54 50 42 38 33 21
74 69 72 62 58 56 60 49 31 31 30 30 26 31 36 38 39 37 33 34 43 47 57 53 54 74 81 87 100 90 66 48 46 46 48 58 64 60 57 52 46 42 35
72 89 88 80 59 90 68 47 26 34 32 33 29 28 32 30 28 27 27 26 26 32 44 42 61 99 90 50 84 55 68 53 37 44 53 56 76 74 61 59 52 46 33
66 97 100 93 97 91 47 41 41 42 34 36 38 33 30 30 34 32 32 25 24 23 24 32 46 48 75 80 62 55 46 53 45 46 55 64 69 89 97 80 68 58 46
50 83 100 100 96 63 58 53 55 54 36 33 39 36 36 35 35 34 31 38 37 33 29 23 25 48 50 46 54 74 59 98 48 53 48 67 71 74 93 96 94 84 77
30 38 75 73 54 57 51 45 56 79 66 54 52 54 56 56 63 56 46 41 44 36 33 30 25 27 45 57 53 62 83 52 37 37 43 48 66 70 79 73 84 100 98
30 31 44 57 52 56 49 61 59 79 86 74 77 74 77 90 84 50 40 41 40 39 39 38 37 32 30 45 60 55 43 41 37 34 43 46 58 70 71 85 74 74 100
26 31 26 46 36 46 52 66 85 92 100 93 83 96 100 88 58 47 42 36 35 32 33 32 36 40 40 35 30 49 57 54 47 37 40 32 43 50 68 95 91 75 88
52 36 37 50 41 51 59 43 48 88 87 99 97 70 61 75 80 78 61 58 54 53 46 44 39 33 37 38 40 38 35 60 74 60 57 47 38 40 42 62 100 100 79
71 74 56 46 61 60 67 97 76 71 99 100 98 70 65 54 57 63 68 67 96 86 74 85 60 51 44 44 67 60 49 56 55 84 73 57 49 57 66 52 73 99 96
80 86 64 54 59 78 100 100 86 83 100 100 94 65 60 56 56 57 44 71 100 100 100 91 78 82 96 64 75 100 93 75 75 80 98 100 78 78 83 82 71 86 100
28 31 48 47 65 91 99 74 63 89 100 85 50 51 62 62 56 59 59 66 48 78 79 98 87 77 100 81 58 78 76 66 73 80 87 100 100 100 100 81 80 94 100
51 20 22 64 98 100 92 68 61 62 47 39 38 44 48 50 62 62 57 57 68 80 100 96 88 68 77 99 100 88 82 85 88 76 84 98 100 100 100 100 74 64 74
55 24 24 59 81 100 80 63 44 42 46 44 51 52 52 56 59 69 64 57 58 53 55 73 63 67 91 94 94 86 96 88 86 90 97 81 99 100 100 100 100 91 77
56 55 78 100 100 90 80 56 56 71 72 51 52 66 66 64 61 58 59 58 47 52 73 52 50 82 72 80 70 100 100 95 85 76 75 98 82 94 100 100 100 100 100
88 100 100 100 100 94 73 74 92 93 83 90 92 84 76 68 61 58 57 46 52 50 82 85 79 75 62 56 37 26 47 92 90 100 100 81 100 98 90 97 100 100 100
100 100 100 100 100 86 91 100 100 99 100 85 81 80 91 77 72 63 59 58 55 65 91 87 94 81 80 88 58 27 31 19 25 91 100 71 100 90 71 70 65 98 100
100 100 100 100 80 94 100 100 100 91 77 75 77 77 89 70 66 63 64 62 73 98 87 100 80 91 99 72 49 34 35 42 44 18 62 67 55 96 100 71 57 76 100
100 100 100 82 70 99 100 84 74 79 72 71 69 66 65 59 58 65 68 92 100 100 100 100 100 100 98 62 67 58 40 36 36 42 36 58 80 71 82 99 85 87 99
100 97 56 49 61 61 66 76 90 84 87 78 70 60 63 58 66 74 100 100 100 100 99 96 90 100 84 53 47 46 45 39 32 31 39 39 68 62 67 63 65 92 94

GFSSE_250_rhum_231.txt.gz
RH
41 53 85 94 80 92 76 45 25 20 14 11 15 17 20 18 24 58 60 100 98 46 49 59 64 44 42 39 36 33 30 25 21 21 20 21 22 20 17 15 14 12 11
33 46 100 73 77 72 52 34 20 14 12 14 22 26 59 37 78 66 98 100 73 95 100 80 70 56 53 41 35 31 29 26 21 20 21 23 24 25 20 13 13 12 12
33 96 92 75 62 50 29 24 18 15 15 19 41 83 100 83 74 100 100 99 98 79 94 76 77 70 50 44 40 33 34 31 25 20 21 22 29 31 23 14 13 14 14
88 100 96 78 51 32 30 25 22 17 24 28 35 79 100 91 94 90 73 61 60 100 100 100 88 63 70 60 44 44 45 35 30 24 22 22 33 36 32 15 14 15 15
100 95 88 72 54 38 39 50 39 25 24 42 47 65 100 100 100 99 94 68 74 100 100 100 97 98 96 85 69 64 52 59 63 34 32 28 34 44 39 30 15 15 16
96 90 86 57 42 44 48 45 39 30 30 30 31 57 70 84 100 100 100 100 100 100 100 100 100 100 86 71 56 96 77 73 59 42 35 33 38 48 52 44 35 24 16
96 98 78 58 44 65 72 57 49 31 31 30 29 27 32 39 50 57 53 54 54 53 63 68 67 72 72 61 60 100 86 82 70 63 40 40 39 48 58 60 46 43 39
91 76 70 67 89 69 91 58 42 26 25 26 29 29 30 27 26 24 24 24 22 22 21 22 29 37 43 61 93 99 84 82 56 61 47 33 44 49 57 77 71 58 54
48 59 78 87 88 88 99 54 45 34 34 27 29 32 30 29 29 31 34 32 30 29 31 31 28 22 27 36 49 95 82 63 38 45 38 38 41 45 54 67 81 82 66
31 39 72 92 94 100 76 44 48 46 55 37 36 37 35 35 36 46 51 45 28 22 24 23 23 28 26 26 36 49 42 40 34 47 57 53 44 62 55 66 84 74 84
30 32 63 100 100 68 47 43 39 37 47 48 54 50 58 50 51 65 60 36 28 23 21 30 27 25 26 26 33 34 58 65 53 44 46 43 37 42 64 62 69 90 83
28 30 35 40 56 49 41 46 56 72 67 75 74 77 86 91 82 62 37 39 33 35 34 28 28 34 32 27 27 34 38 43 70 63 49 37 36 44 43 61 77 72 76
20 25 32 25 36 37 37 33 45 63 86 99 96 91 84 79 60 40 40 32 31 42 40 29 32 40 34 38 34 31 36 38 38 43 75 68 46 36 48 52 56 68 80
28 25 26 31 75 58 50 40 44 51 59 78 74 93 92 72 65 54 44 44 38 35 61 69 52 62 69 61 48 39 34 36 46 49 49 40 62 70 49 48 50 46 48
53 48 60 49 72 82 75 67 67 69 93 67 65 64 76 80 74 60 59 50 47 48 51 64 93 100 99 90 81 58 45 40 38 60 84 80 57 50 71 67 66 58 52
60 51 55 47 61 94 95 100 92 100 99 63 62 73 71 76 53 49 52 55 64 57 63 65 76 100 100 93 88 82 84 97 81 65 70 77 80 68 65 74 77 67 79
100 99 90 44 34 98 100 100 100 100 85 59 49 60 67 44 39 47 53 54 60 65 66 60 99 100 100 100 100 98 81 100 100 98 84 99 70 76 76 62 80 94 80
100 100 90 48 49 86 64 98 100 99 73 57 58 65 56 44 46 55 60 68 60 56 68 66 83 100 99 100 92 78 84 96 82 99 100 100 100 100 88 96 80 71 88
100 100 98 55 24 26 57 68 95 90 76 67 79 59 57 57 72 77 91 78 77 71 67 63 56 51 60 44 52 87 55 77 87 53 73 72 76 100 100 87 99 94 77
73 100 100 100 79 74 90 89 100 100 98 87 77 91 96 88 99 100 100 91 91 98 75 65 60 57 58 43 42 52 64 64 95 70 60 63 65 78 99 100 98 86 94
80 64 62 100 100 100 96 97 100 98 85 81 100 100 100 88 81 82 80 83 66 63 66 67 72 77 92 84 96 67 76 71 84 70 82 75 40 31 73 100 100 100 93
68 84 76 90 78 74 70 100 83 90 93 100 100 100 78 91 92 79 77 75 71 73 65 65 80 100 100 100 85 78 79 75 65 88 75 66 43 34 26 74 89 96 100
52 62 54 46 71 100 100 82 49 68 89 66 68 79 83 75 70 68 53 54 65 63 71 89 78 76 82 70 77 78 93 98 97 98 83 51 40 37 42 45 60 86 100
54 42 36 48 92 68 71 50 33 37 49 57 61 60 67 70 50 45 64 81 62 67 68 69 67 81 69 83 100 100 100 100 100 100 98 81 65 40 32 23 68 72 100
93 68 54 60 64 96 59 35 42 66 68 67 52 54 44 50 57 66 60 89 63 73 89 97 100 100 100 100 100 100 100 100 100 66 44 53 52 47 44 26 25 67 100
100 98 96 90 96 62 47 55 70 50 36 44 46 42 43 53 54 52 66 74 79 81 90 100 100 100 100 100 100 100 100 99 90 73 42 36 34 48 41 40 36 42 76

GFSSE_250_rhum_234.txt.gz
RH
17 25 47 88 98 70 69 76 43 24 16 16 12 14 18 23 26 27 36 54 56 77 89 38 38 51 62 48 41 39 37 34 32 29 25 23 19 19 19 18 19 17 15
22 41 71 100 65 61 58 40 22 20 19 15 16 32 96 90 63 100 97 97 100 100 78 96 100 64 56 54 53 46 38 31 24 25 25 22 20 18 19 19 20 19 15
38 71 100 76 73 64 44 28 27 28 23 16 19 35 80 100 87 78 100 86 92 75 64 63 84 93 83 80 61 51 49 41 32 26 25 25 23 20 20 24 25 21 15
72 85 99 88 84 58 45 35 46 35 24 20 26 36 69 100 99 100 100 98 70 52 55 100 100 100 94 76 58 51 63 59 47 38 35 36 32 28 24 24 31 28 15
53 98 95 85 65 43 44 56 42 37 28 27 24 30 50 85 100 100 100 100 99 77 75 92 95 100 96 88 85 87 75 64 64 86 70 48 40 30 30 32 38 39 27
88 92 90 87 74 42 56 56 49 43 29 28 27 27 36 50 57 94 94 95 97 90 84 88 92 99 100 95 76 73 70 66 99 94 98 86 69 40 37 37 46 52 47
59 88 74 70 68 58 83 62 55 43 29 20 25 27 24 26 28 34 36 35 30 27 32 29 24 24 26 32 38 39 49 68 100 99 87 72 58 37 36 43 45 48 50
48 63 47 68 66 87 88 83 58 44 24 28 25 25 27 28 28 28 26 29 27 26 23 22 20 19 20 22 27 32 37 49 67 75 57 54 54 45 43 45 51 52 54
45 60 36 38 61 86 100 95 58 38 38 38 33 32 39 38 37 32 29 30 27 19 16 17 17 16 22 24 22 25 27 40 48 50 46 43 53 52 47 39 57 64 76
37 35 33 36 51 68 77 51 41 37 40 41 35 38 58 48 47 48 30 26 20 21 19 13 17 20 21 18 23 22 22 26 27 31 48 59 52 45 45 44 42 60 77
31 34 31 31 30 37 37 36 38 49 66 56 45 50 54 41 37 38 33 25 29 24 17 14 18 20 17 19 25 35 30 25 22 28 31 40 71 80 61 44 47 50 53
26 26 28 27 24 33 39 33 33 31 31 27 35 36 33 34 30 31 34 42 38 31 27 26 28 36 38 40 32 31 38 38 37 31 28 30 32 46 80 85 66 51 58
28 26 25 28 30 34 57 51 52 41 36 34 32 30 26 27 28 32 42 49 40 38 40 39 40 43 67 78 83 62 52 35 37 36 36 36 32 34 34 44 61 90 75
46 37 38 44 63 50 38 67 66 61 73 67 51 56 39 37 43 44 52 47 34 41 43 55 53 52 54 88 100 96 83 84 67 66 54 54 38 39 48 55 54 64 67
93 36 39 55 80 78 69 76 64 76 100 100 86 66 47 40 45 66 61 39 43 54 56 57 53 57 68 83 100 100 96 99 100 100 100 100 82 71 72 51 64 56 49
100 100 62 91 93 100 73 66 63 85 86 95 93 70 58 51 72 91 60 44 56 65 81 78 67 64 53 59 78 85 90 97 99 97 75 73 100 86 89 98 100 100 88
65 99 100 100 100 100 75 60 98 73 77 93 92 77 84 74 77 65 65 60 74 87 79 86 74 66 66 65 67 61 67 71 72 51 61 51 62 60 55 59 81 62 86
64 92 100 100 100 99 63 57 64 93 98 100 98 100 92 87 98 84 94 78 82 79 80 86 91 86 79 86 77 67 69 63 72 80 59 77 83 85 92 90 61 48 41
55 79 79 84 100 92 88 64 95 80 100 100 100 100 87 91 99 100 94 82 92 100 100 89 75 62 52 53 72 77 78 68 84 72 70 72 63 82 99 92 84 77 72
42 67 59 88 93 97 100 92 48 38 100 100 96 100 100 100 100 100 100 99 100 86 56 50 56 60 56 67 76 84 66 82 70 63 70 71 72 57 84 86 85 99 94
33 59 61 79 91 100 70 56 72 100 100 82 68 57 65 69 70 78 96 85 56 49 54 60 68 58 68 83 75 85 93 100 97 91 100 100 97 83 52 66 53 50 75
40 62 69 72 62 69 61 100 100 92 92 44 36 36 47 61 63 66 52 47 47 54 61 62 60 52 62 80 74 79 93 100 100 100 100 100 100 100 100 100 86 100 60
54 67 57 48 43 57 62 46 31 26 28 53 34 44 57 45 40 37 46 48 47 46 55 60 70 93 79 92 97 100 99 88 68 95 95 100 100 100 100 100 100 100 100
32 48 60 56 55 38 28 28 28 65 67 47 55 57 36 38 42 46 43 42 46 76 79 81 59 79 100 96 100 100 100 99 100 100 100 100 100 98 100 92 100 100 100
29 35 47 59 60 42 31 32 57 97 82 72 58 44 35 41 38 36 47 55 68 73 83 71 89 97 100 100 100 100 100 94 100 98 100 92 94 94 90 98 100 100 100
23 33 34 45 45 54 53 91 86 50 38 42 44 32 35 37 40 41 49 73 80 96 85 72 75 100 97 100 99 100 100 99 100 94 80 70 86 87 68 45 48 62 67

GFSSE_250_rhum_237.txt.gz
RH
15 17 20 29 95 78 65 58 59 44 24 19 19 13 13 18 32 30 48 28 54 65 58 81 96 42 36 43 52 44 42 40 37 33 26 24 21 23 22 21 18 18 17
18 26 42 87 88 69 65 50 38 26 24 26 18 14 16 49 74 67 87 74 94 100 100 100 100 79 92 73 59 56 49 49 43 39 32 31 24 23 22 20 19 19 20
18 35 66 62 69 85 65 43 35 34 36 25 16 14 18 53 76 87 89 91 87 75 67 58 65 75 82 85 71 67 62 51 47 46 41 33 31 30 24 26 22 22 23
18 32 66 83 80 77 54 42 37 35 33 24 18 17 22 66 78 100 100 98 98 96 69 71 96 99 95 96 93 74 56 50 47 48 43 40 47 35 37 28 24 23 27
25 57 70 80 82 65 47 42 46 42 40 27 20 18 24 46 93 100 97 95 99 89 78 70 67 73 54 64 70 55 56 58 56 56 52 65 80 68 61 42 30 29 31
27 46 79 76 54 55 56 54 56 45 44 37 21 18 20 28 54 57 72 77 80 76 80 75 67 67 68 69 67 71 54 34 29 52 69 80 83 72 40 39 32 34 36
34 38 45 44 40 54 62 91 76 62 51 31 22 27 25 25 28 31 34 37 38 28 24 23 21 19 19 17 16 17 22 30 34 44 83 100 87 50 39 35 30 32 41
28 32 40 38 29 35 71 100 96 74 48 29 27 26 27 28 31 28 30 29 28 23 19 17 14 17 17 16 18 20 20 22 25 33 37 45 47 43 42 44 38 31 35
32 25 26 28 25 34 82 100 76 46 34 31 38 35 38 34 37 35 28 24 24 21 16 13 14 17 19 16 17 16 15 16 20 26 29 31 40 48 52 53 46 38 32
60 28 26 29 23 22 28 51 49 38 39 32 32 36 45 31 22 20 18 23 29 23 17 22 21 16 24 21 19 28 31 23 19 21 24 25 29 31 36 63 84 68 57
80 38 23 26 25 21 25 32 29 28 30 26 24 23 20 20 21 20 22 24 26 28 24 21 19 23 31 39 45 40 39 31 30 28 27 33 34 32 33 33 36 61 88
97 50 30 24 27 26 23 43 43 47 41 32 26 20 20 26 28 25 27 34 28 31 28 27 26 31 38 39 49 80 92 77 57 50 38 31 34 43 39 31 30 32 37
72 83 32 37 39 38 38 32 38 50 50 53 73 52 37 37 32 30 31 38 35 38 40 42 44 48 43 48 54 64 98 100 100 99 91 76 59 53 74 61 50 53 50
50 56 100 63 54 51 63 63 51 42 60 63 99 88 76 48 34 36 34 38 60 45 43 46 64 57 49 50 52 54 58 65 64 63 98 98 82 68 70 66 87 62 57
73 36 49 100 88 70 74 79 58 41 42 77 62 85 87 64 59 55 51 62 77 56 52 56 60 49 57 54 49 52 56 60 58 56 56 69 84 72 46 48 57 75 49
83 47 36 87 100 100 97 93 94 69 55 70 78 94 100 88 79 75 92 81 74 72 58 64 71 84 85 88 76 57 48 56 70 70 66 73 83 86 62 70 70 42 41
87 49 36 81 100 100 100 100 100 88 72 60 96 100 96 81 86 54 79 94 95 94 92 80 100 74 56 57 65 74 78 82 74 68 63 53 63 68 66 75 90 87 73
68 40 45 48 80 100 100 100 100 100 75 100 100 100 100 76 62 80 83 91 100 89 73 83 62 55 59 78 84 72 62 73 90 66 85 66 97 89 72 94 76 76 88
24 19 31 58 79 85 100 100 100 100 100 81 100 100 77 87 55 40 71 81 87 81 84 57 52 59 72 66 76 82 91 83 74 50 83 98 100 100 98 74 76 100 82
24 21 24 45 79 67 77 90 100 95 62 89 100 90 63 37 30 35 57 48 46 44 45 47 48 44 57 68 73 49 56 61 67 62 70 70 64 100 100 79 74 98 91
28 25 28 19 31 46 68 75 69 65 56 53 54 80 44 39 34 45 33 34 39 44 38 40 40 44 58 64 60 49 48 75 100 100 100 100 100 85 100 100 100 100 100
28 28 37 23 30 48 66 54 59 72 63 48 30 30 45 52 48 52 37 41 41 39 42 42 50 62 54 49 51 52 87 98 100 100 100 100 100 100 100 100 100 96 100
31 24 24 23 23 48 67 79 70 61 38 32 29 64 87 84 59 52 39 38 43 57 54 45 34 45 56 65 57 86 97 89 97 100 100 100 100 99 87 99 100 100 100
39 31 25 24 30 42 56 69 76 56 42 38 71 97 47 40 33 35 35 38 70 71 56 55 58 76 71 68 70 96 68 96 99 74 100 100 97 100 90 92 100 100 100
48 35 26 22 21 28 34 53 50 39 33 38 84 36 26 30 35 34 38 50 89 82 61 65 63 73 69 75 76 71 79 100 100 100 100 100 100 98 99 100 100 100 100
55 36 24 21 17 17 20 22 28 48 73 96 52 36 31 38 31 36 51 80 85 82 70 65 79 62 67 83 66 70 97 100 100 100 95 97 90 84 71 60 86 91 72

GFSSE_250_rhum_243.txt.gz
RH
23 19 17 20 34 43 54 52 49 47 41 38 27 25 19 16 15 16 19 30 42 19 67 69 69 77 48 47 45 51 40 38 35 31 27 26 26 24 24 26 24 24 23
22 21 18 22 30 50 63 64 65 46 33 34 29 25 18 16 15 33 43 61 78 89 100 100 100 100 89 77 78 80 60 47 45 41 42 40 36 37 38 34 33 30 26
24 21 19 24 52 60 50 60 59 39 33 32 34 25 22 15 52 39 67 79 80 57 62 56 71 67 62 63 81 83 88 78 63 61 57 53 49 45 44 41 33 33 29
28 22 21 21 31 58 50 56 39 39 38 36 35 39 27 17 22 91 100 100 100 86 78 72 70 65 59 48 50 54 54 59 57 53 56 54 43 41 38 31 26 26 32
29 31 33 23 23 32 33 30 26 25 41 49 45 39 26 21 22 27 77 85 89 83 81 71 59 65 59 58 58 56 53 62 62 69 64 52 37 27 21 24 31 51 40
59 55 40 35 25 20 23 22 21 35 49 51 55 40 24 21 21 22 25 27 28 30 26 26 23 18 18 20 18 17 17 16 15 15 14 15 15 19 24 28 33 37 39
30 40 34 37 37 23 18 16 16 27 44 49 39 32 24 25 25 26 25 25 26 28 26 23 16 14 15 13 11 12 12 14 15 17 18 17 17 17 19 30 39 34 34
35 34 37 38 51 30 18 16 16 21 32 25 27 28 35 34 31 28 28 27 24 24 24 20 21 20 16 13 15 14 16 17 20 20 22 24 22 21 22 22 22 20 20
44 43 41 41 48 39 22 18 16 19 19 20 26 26 30 34 29 31 30 25 24 22 21 20 19 15 14 14 18 18 17 16 19 19 25 24 26 30 30 32 34 30 27
63 55 48 52 45 58 29 21 21 20 24 24 21 24 28 26 23 24 21 22 21 22 18 18 17 16 16 19 21 19 19 22 25 31 44 52 40 48 54 52 44 30 28
92 59 45 58 53 45 45 24 28 25 26 30 27 36 26 23 25 25 22 23 21 23 24 26 22 21 25 23 23 23 26 28 33 36 30 29 27 26 30 38 45 42 43
100 80 53 50 65 66 48 63 41 38 33 48 38 30 35 69 47 51 34 29 26 24 26 28 36 25 24 27 29 39 35 34 29 30 43 41 42 38 36 30 24 25 33
98 100 71 63 65 83 56 41 86 82 64 72 70 43 34 49 54 64 60 41 38 41 32 32 37 32 40 45 45 58 73 42 32 38 46 43 33 36 42 45 38 36 38
84 87 91 68 69 95 68 48 50 100 100 94 83 56 38 51 64 76 84 68 52 44 47 46 46 44 68 64 66 64 48 40 42 48 39 44 40 44 46 52 39 35 42
54 81 100 78 66 78 71 45 32 59 100 100 100 88 80 44 60 91 100 88 63 46 62 56 58 72 99 86 78 58 49 47 51 52 47 60 42 48 56 54 44 54 45
66 100 100 66 64 75 60 28 29 46 97 100 100 100 100 89 72 94 100 100 61 50 54 48 66 71 98 52 70 47 48 47 38 38 42 44 46 54 59 79 69 59 80
100 100 61 47 70 40 28 28 32 60 96 100 100 100 100 100 99 100 100 98 60 50 39 34 50 33 36 41 50 52 57 57 63 65 70 63 59 60 65 96 100 91 84
50 54 48 50 64 30 36 22 24 43 95 100 100 100 100 97 100 100 99 100 73 58 32 41 37 35 36 38 50 66 81 81 85 84 83 93 76 70 77 80 83 73 48
38 50 55 44 49 54 34 21 22 27 49 71 83 94 100 100 100 88 73 98 95 68 46 51 53 38 39 40 45 54 97 95 84 84 100 76 62 65 78 76 74 72 69
40 36 42 48 43 60 40 22 25 42 56 63 80 83 89 92 80 68 80 95 88 49 65 91 55 36 36 36 42 50 58 63 99 100 62 72 83 60 78 75 71 57 75
44 34 28 51 45 61 38 26 31 43 66 67 78 79 86 75 78 86 71 58 49 100 98 55 34 33 32 31 40 50 76 99 100 100 100 100 99 62 62 53 50 47 76
48 47 31 32 40 70 54 51 30 41 42 41 27 33 57 77 75 61 61 89 99 62 51 41 39 31 31 30 34 58 84 100 100 100 100 79 55 50 56 53 62 97 100
46 54 38 42 46 94 82 40 33 26 54 24 20 22 50 81 66 57 79 57 55 44 36 31 34 30 29 29 33 41 67 99 100 100 100 72 46 49 43 70 98 95 99
53 54 51 37 40 61 99 43 34 38 51 34 26 26 40 52 48 38 31 26 26 24 24 28 32 31 28 30 32 52 99 100 100 100 98 77 46 65 97 97 81 100 90
48 47 62 48 36 47 72 52 46 33 54 36 27 22 25 22 21 19 22 23 27 33 40 39 47 46 41 47 59 99 96 81 60 60 73 75 73 97 100 100 100 99 65
48 39 68 70 39 33 77 65 52 44 51 51 33 22 22 21 19 22 26 26 25 27 35 46 73 74 82 86 92 98 76 75 65 78 78 86 73 78 85 69 72 72 85

GFSSE_250_rhum_246.txt.gz
RH
18 20 16 15 14 31 51 60 59 60 49 34 33 30 27 20 17 14 24 43 62 38 82 91 97 92 92 70 41 33 35 34 35 32 31 25 23 26 26 26 25 24 24
20 20 20 19 15 14 27 48 54 51 42 39 33 32 24 22 16 21 24 36 84 65 91 100 100 100 100 100 92 87 81 82 56 39 38 40 39 39 38 35 34 32 30
26 28 31 27 22 17 19 35 43 34 38 41 39 34 32 26 17 22 51 72 63 68 61 59 60 68 72 64 55 57 76 71 86 81 73 64 53 46 46 48 43 37 29
33 23 30 29 27 24 19 19 23 22 28 42 42 45 36 28 21 20 99 100 100 100 100 100 95 86 74 68 58 48 41 44 54 47 49 49 47 45 34 35 32 26 22
43 27 26 30 34 34 23 20 17 16 27 44 53 47 44 26 20 20 22 34 33 39 25 30 28 27 21 19 17 16 18 19 23 25 25 27 22 18 20 19 14 14 17
57 35 30 34 28 31 31 20 16 15 18 35 49 33 27 25 25 23 21 23 23 24 25 23 21 17 14 14 12 11 10 10 10 9 9 9 11 13 13 14 13 14 17
77 49 32 35 37 31 27 25 18 16 16 20 21 21 20 23 24 22 21 23 27 26 22 22 20 19 17 15 14 12 11 10 11 14 13 12 14 15 14 15 15 15 16
84 71 50 31 32 33 34 41 28 19 19 20 17 16 17 19 23 20 24 27 26 23 22 21 21 20 17 15 14 13 13 13 14 16 16 17 23 24 27 29 29 27 24
99 100 84 41 32 31 34 40 38 32 22 24 24 16 17 20 24 22 19 23 20 20 19 20 21 20 17 15 15 15 18 18 18 15 15 16 16 24 24 22 24 27 31
100 80 100 59 49 48 50 50 52 42 45 26 34 26 18 19 18 21 21 18 20 18 18 17 17 18 18 17 17 19 19 20 20 27 23 21 20 20 21 21 20 19 21
100 50 100 73 69 55 50 69 53 56 48 54 38 47 26 26 30 26 28 29 29 23 22 21 21 20 20 19 21 26 29 32 46 44 29 28 28 30 32 31 28 27 25
51 47 86 51 89 66 64 69 68 54 61 85 78 70 65 41 36 57 62 66 46 35 31 31 30 28 27 27 27 35 42 43 35 34 30 30 28 26 24 30 36 44 44
22 32 37 49 100 82 70 64 52 52 36 78 100 99 88 52 40 41 45 43 57 52 44 38 40 36 33 42 42 57 47 35 40 34 25 26 23 25 28 34 26 32 32
26 26 59 100 96 60 70 67 38 32 28 38 100 100 100 93 79 52 52 63 100 92 64 46 50 51 54 52 64 94 57 40 34 30 34 38 45 48 48 61 52 44 50
40 33 92 100 90 40 60 70 31 31 28 35 49 100 100 100 100 99 82 92 100 100 100 66 57 62 46 58 91 98 41 33 38 51 55 81 68 76 86 93 48 44 42
37 45 40 46 37 43 57 46 31 29 23 28 63 100 100 100 100 100 100 100 100 100 100 78 79 56 40 45 37 28 28 34 34 65 94 68 96 89 100 95 82 64 60
37 42 37 32 38 49 49 33 35 25 21 22 34 80 89 94 81 100 100 100 100 100 100 85 68 48 37 42 33 33 37 38 43 52 49 52 85 100 100 95 92 96 90
41 46 43 38 32 47 40 40 39 25 20 29 29 39 71 85 99 100 100 100 100 73 88 98 82 78 50 76 65 39 35 37 42 47 61 68 99 100 100 97 99 100 90
35 53 56 51 43 29 47 42 49 32 26 33 42 44 33 32 61 91 96 88 69 76 95 100 82 56 94 90 38 30 29 29 31 36 46 83 87 100 100 100 100 100 99
27 51 60 54 49 38 28 44 56 50 31 31 42 45 35 30 43 54 52 66 79 72 79 61 86 93 58 45 38 38 37 35 29 34 45 59 100 100 100 100 100 100 100
31 45 67 64 48 49 36 35 46 60 52 34 49 38 22 22 22 36 52 57 67 58 80 100 80 68 61 38 30 32 34 33 31 40 53 100 100 100 99 90 82 75 96
71 36 59 75 66 49 51 40 46 90 73 56 40 42 23 21 20 32 51 63 55 77 63 36 30 27 29 29 29 28 31 38 43 47 86 95 100 67 61 70 90 94 98
89 50 55 90 85 48 53 63 43 41 76 57 44 44 36 29 27 25 38 48 43 31 24 26 30 28 27 28 30 37 47 67 84 98 100 100 81 55 61 63 76 90 97
67 62 56 94 99 62 53 62 61 46 58 61 54 44 44 35 24 23 21 20 18 20 24 23 24 29 38 43 54 62 73 95 100 100 100 100 54 74 80 74 86 96 100
94 78 97 76 100 60 71 51 69 71 70 74 61 48 44 43 28 26 24 24 27 28 30 26 28 38 49 58 68 83 95 100 100 100 97 49 78 87 85 94 92 79 88
69 100 100 97 90 72 54 46 76 69 49 72 71 65 52 47 44 30 31 30 31 44 38 42 45 55 81 90 93 100 100 100 100 61 72 75 82 68 83 76 65 80 100